LEHMAN Weather Reports


time (UTC)temp
C
wind
direction
speed
KPH
gust
KPH
rain 1hr
cm
rain 24hr
cm
rain mn
cm
humidity
%
barometer
mb
20260505211006 18 275 4.8 16.1 0.00 0.00 0.00 41 1015.1
20260505210504 18 44 6.4 17.7 0.00 0.00 0.00 42 1015.2
20260505210026 20 279 6.4 20.9 0.00 0.00 0.00 40 1015.1
20260505205504 20 36 8.0 22.5 0.00 0.00 0.00 42 1015.1
20260505205004 19 272 4.8 22.5 0.00 0.00 0.00 42 1015.1
20260505204003 19 39 1.6 12.9 0.00 0.00 0.00 43 1015.1
20260505203503 18 240 3.2 14.5 0.00 0.00 0.00 42 1015.2
20260505202503 20 239 4.8 25.7 0.00 0.00 0.00 41 1015.1
20260505202004 20 265 4.8 25.7 0.00 0.00 0.00 39 1015.0
20260505201521 19 251 1.6 12.9 0.00 0.00 0.00 39 1015.0
20260505201003 20 227 3.2 16.1 0.00 0.00 0.00 41 1015.0
20260505200503 20 254 4.8 16.1 0.00 0.00 0.00 41 1015.0
20260505200005 20 318 3.2 12.9 0.00 0.00 0.00 42 1015.0
20260505195502 18 40 1.6 16.1 0.00 0.00 0.00 39 1015.0
20260505195003 20 280 3.2 16.1 0.00 0.00 0.00 38 1015.0
20260505194006 19 263 3.2 14.5 0.00 0.00 0.00 42 1015.0
20260505193504 18 245 3.2 17.7 0.00 0.00 0.00 41 1015.0
20260505193025 18 32 4.8 17.7 0.00 0.00 0.00 40 1015.0
20260505192506 19 355 3.2 17.7 0.00 0.00 0.00 41 1015.0
20260505191529 18 242 0.0 12.9 0.00 0.00 0.00 43 1015.0
20260505190503 18 257 4.8 14.5 0.00 0.00 0.00 40 1015.1
20260505185503 18 280 3.2 14.5 0.00 0.00 0.00 47 1015.1
20260505184526 17 257 3.2 11.3 0.00 0.00 0.00 54 1015.0
20260505184003 18 156 1.6 6.4 0.00 0.00 0.00 52 1014.9
20260505183505 18 184 1.6 6.4 0.00 0.00 0.00 52 1015.0
20260505183033 18 278 3.2 6.4 0.00 0.00 0.00 54 1014.8
20260505182004 17 18 1.6 12.9 0.00 0.00 0.00 53 1014.9
20260505180042 18 279 1.6 8.0 0.00 0.00 0.00 51 1014.9
20260505175506 18 263 1.6 9.7 0.00 0.00 0.00 52 1015.0
20260505175003 17 238 3.2 9.7 0.00 0.00 0.00 54 1014.9
20260505174512 17 261 1.6 11.3 0.00 0.00 0.00 52 1014.9
20260505174007 17 265 1.6 12.9 0.00 0.00 0.00 54 1015.0
20260505173503 17 259 6.4 12.9 0.00 0.00 0.00 55 1014.9
20260505173008 17 22 1.6 8.0 0.00 0.00 0.00 59 1014.7
20260505172505 16 247 0.0 6.4 0.00 0.00 0.00 59 1014.7
20260505172004 16 65 1.6 9.7 0.00 0.00 0.00 55 1014.7
20260505171531 17 73 3.2 9.7 0.00 0.00 0.00 52 1014.7
20260505171006 16 139 1.6 8.0 0.00 0.00 0.00 53 1014.7
20260505170502 17 221 1.6 8.0 0.00 0.00 0.00 55 1014.6
20260505170025 17 210 3.2 8.0 0.00 0.00 0.00 52 1014.6
20260505165503 16 153 1.6 8.0 0.00 0.00 0.00 50 1014.6
20260505165002 16 186 1.6 6.4 0.00 0.00 0.00 51 1014.7
20260505164505 16 232 1.6 4.8 0.00 0.00 0.00 56 1014.7
20260505164003 15 189 0.0 4.8 0.00 0.00 0.00 58 1014.7
20260505163504 15 246 0.0 6.4 0.00 0.00 0.00 60 1014.6
20260505163021 15 233 1.6 6.4 0.00 0.00 0.00 62 1014.7
20260505162503 15 237 0.0 4.8 0.00 0.00 0.00 62 1014.7
20260505162007 14 281 0.0 3.2 0.00 0.00 0.00 62 1014.7
20260505161503 14 296 0.0 3.2 0.00 0.00 0.00 65 1014.7
20260505161004 14 283 0.0 9.7 0.00 0.00 0.00 62 1014.7
20260505160503 14 5 1.6 9.7 0.00 0.00 0.00 66 1014.7
20260505153012 10 360 1.6 3.2 0.00 0.00 0.00 82 1014.6
20260505152506 10 360 0.0 1.6 0.00 0.00 0.00 85 1014.5
20260505152003 9 360 0.0 1.6 0.00 0.00 0.00 85 1014.6
20260505151525 8 360 0.0 1.6 0.00 0.00 0.00 88 1014.5
20260505151003 8 360 0.0 1.6 0.00 0.00 0.00 89 1014.5
20260505150503 8 360 0.0 3.2 0.00 0.00 0.00 89 1014.5
20260505140504 3 154 0.0 1.6 0.00 0.00 0.00 94 1013.9
20260505125006 2 360 0.0 0.0 0.00 0.00 0.00 93 1013.4
20260505124529 2 360 0.0 0.0 0.00 0.00 0.00 92 1013.4
20260505124004 2 360 0.0 0.0 0.00 0.00 0.00 91 1013.3
20260505123504 2 360 0.0 1.6 0.00 0.00 0.00 92 1013.1
20260505123026 3 360 0.0 1.6 0.00 0.00 0.00 92 1013.1
20260505122507 2 360 0.0 1.6 0.00 0.00 0.00 91 1013.1
20260505122004 3 360 0.0 1.6 0.00 0.00 0.00 91 1013.0
20260505121514 2 360 0.0 1.6 0.00 0.00 0.00 91 1013.1
20260505121009 3 360 0.0 1.6 0.00 0.00 0.00 91 1013.2
20260505120504 3 360 0.0 1.6 0.00 0.00 0.00 90 1013.1
20260505120029 3 360 0.0 1.6 0.00 0.00 0.00 90 1013.1
20260505115504 3 360 0.0 1.6 0.00 0.00 0.00 91 1013.0
20260505115004 3 360 0.0 1.6 0.00 0.00 0.00 91 1013.0
20260505114507 3 360 0.0 1.6 0.00 0.00 0.00 91 1013.0
20260505114006 3 155 0.0 1.6 0.00 0.00 0.00 90 1012.9
20260505113505 3 360 0.0 1.6 0.00 0.00 0.00 90 1012.9
20260505113028 3 360 0.0 1.6 0.00 0.00 0.00 90 1013.0
20260505112504 3 360 0.0 1.6 0.00 0.00 0.00 90 1012.9
20260505112006 3 154 0.0 1.6 0.00 0.00 0.00 89 1012.8
20260505111004 3 154 0.0 1.6 0.00 0.00 0.00 89 1012.8
20260505101546 5 161 0.0 3.2 0.00 0.00 0.00 89 1012.7
20260505101006 4 161 0.0 3.2 0.00 0.00 0.00 89 1012.5
20260505100051 4 140 0.0 3.2 0.00 0.00 0.00 88 1012.5
20260505095503 4 212 0.0 1.6 0.00 0.00 0.00 89 1012.5
20260505095005 4 212 0.0 1.6 0.00 0.00 0.00 88 1012.5
20260505093507 4 212 0.0 3.2 0.00 0.00 0.00 88 1012.5
20260505093028 4 213 0.0 3.2 0.00 0.00 0.00 87 1012.5
20260505091528 5 253 0.0 3.2 0.00 0.00 0.00 87 1012.6
20260505091008 5 253 1.6 3.2 0.00 0.00 0.00 87 1012.5
20260505090507 5 149 0.0 3.2 0.00 0.00 0.00 87 1012.5
20260505090026 5 122 0.0 1.6 0.00 0.00 0.00 87 1012.5
20260505085508 5 360 0.0 1.6 0.00 0.00 0.00 88 1012.6
20260505084521 5 360 0.0 1.6 0.00 0.00 0.00 86 1012.6
20260505084003 5 122 0.0 3.2 0.00 0.00 0.00 86 1012.5
20260505083008 5 96 0.0 3.2 0.00 0.00 0.00 86 1012.5
20260505082503 5 96 0.0 3.2 0.00 0.00 0.00 85 1012.5
20260505081524 5 190 0.0 4.8 0.00 0.00 0.00 87 1012.5
20260505081010 5 190 0.0 1.6 0.00 0.00 0.00 86 1012.5
20260505080503 5 190 0.0 1.6 0.00 0.00 0.00 84 1012.5
20260505080006 5 190 0.0 1.6 0.00 0.00 0.00 84 1012.5
20260505075502 5 190 0.0 1.6 0.00 0.00 0.00 83 1012.4
20260505075005 6 190 0.0 1.6 0.00 0.00 0.00 86 1012.3
20260505074009 5 190 0.0 3.2 0.00 0.00 0.00 84 1012.4
20260505073015 5 150 0.0 3.2 0.00 0.00 0.00 85 1012.5
20260505072507 5 165 0.0 3.2 0.00 0.00 0.00 85 1012.4
20260505072004 5 165 0.0 1.6 0.00 0.00 0.00 84 1012.5
20260505071507 5 165 0.0 3.2 0.00 0.00 0.00 84 1012.5
20260505071003 6 158 0.0 3.2 0.00 0.00 0.00 82 1012.4
20260505070503 5 157 0.0 6.4 0.00 0.00 0.00 85 1012.4
20260505070015 6 360 1.6 6.4 0.00 0.00 0.00 82 1012.4
20260505065506 6 162 0.0 3.2 0.00 0.00 0.00 82 1012.4
20260505065003 6 182 0.0 3.2 0.00 0.00 0.00 82 1012.3
20260505064513 6 144 0.0 3.2 0.00 0.00 0.00 82 1012.2
20260505064009 6 157 0.0 3.2 0.00 0.00 0.00 81 1012.2
20260505063502 6 136 0.0 3.2 0.00 0.00 0.00 80 1012.2
20260505063022 6 159 0.0 3.2 0.00 0.00 0.00 81 1012.2
20260505062504 6 167 0.0 4.8 0.00 0.00 0.00 81 1012.3
20260505062007 7 167 1.6 4.8 0.00 0.00 0.00 78 1012.3
20260505061512 7 360 0.0 4.8 0.00 0.00 0.00 82 1012.2
20260505061003 6 360 0.0 4.8 0.00 0.00 0.00 78 1012.2
20260505060503 7 360 0.0 6.4 0.00 0.00 0.00 76 1012.1
20260505060026 7 147 1.6 6.4 0.00 0.00 0.00 77 1012.0
20260505055504 7 360 1.6 6.4 0.00 0.00 0.00 78 1011.9
20260505055011 7 146 1.6 6.4 0.00 0.00 0.00 77 1011.9
20260505054516 7 128 1.6 4.8 0.00 0.00 0.00 76 1011.9
20260505054002 7 360 0.0 8.0 0.00 0.00 0.00 75 1011.9
20260505053510 7 360 0.0 8.0 0.00 0.00 0.00 75 1012.0
20260505053036 7 360 0.0 8.0 0.00 0.00 0.00 76 1012.0
20260505052507 7 136 0.0 8.0 0.00 0.00 0.00 76 1012.0
20260505052006 8 159 0.0 4.8 0.00 0.00 0.00 75 1012.0
20260505051521 8 140 1.6 4.8 0.00 0.00 0.00 73 1012.0
20260505051006 8 108 1.6 4.8 0.00 0.00 0.00 72 1012.0
20260505050504 8 111 0.0 6.4 0.00 0.00 0.00 73 1012.0
20260505041530 9 146 1.6 6.4 0.00 0.00 0.00 68 1011.8
20260505041004 9 117 1.6 6.4 0.00 0.00 0.00 69 1011.8
20260505040510 9 155 1.6 12.9 0.00 0.00 0.00 69 1011.7
20260505040020 10 88 3.2 12.9 0.00 0.00 0.00 68 1011.8
20260505035508 10 150 3.2 11.3 0.00 0.00 0.00 68 1011.7
20260505035003 10 103 3.2 11.3 0.00 0.00 0.00 67 1011.7
20260505034527 10 146 3.2 9.7 0.00 0.00 0.00 65 1011.7
20260505034015 10 134 3.2 9.7 0.00 0.00 0.00 67 1011.7
20260505033503 11 131 1.6 9.7 0.00 0.00 0.00 66 1011.7
20260505033013 11 150 1.6 9.7 0.00 0.00 0.00 64 1011.6
20260505032505 11 123 3.2 8.0 0.00 0.00 0.00 64 1011.6
20260505032008 11 157 3.2 8.0 0.00 0.00 0.00 62 1011.5
20260505031509 12 118 3.2 8.0 0.00 0.00 0.00 61 1011.6
20260505031011 12 121 1.6 8.0 0.00 0.00 0.00 61 1011.5
20260505030510 12 136 1.6 6.4 0.00 0.00 0.00 59 1011.5
20260505030006 13 153 1.6 6.4 0.00 0.00 0.00 56 1011.4
20260505025507 13 142 0.0 4.8 0.00 0.00 0.00 54 1011.4
20260505025006 14 148 1.6 3.2 0.00 0.00 0.00 51 1011.4
20260505024517 15 137 0.0 4.8 0.00 0.00 0.00 48 1011.4
20260505024003 15 117 0.0 4.8 0.00 0.00 0.00 43 1011.4
20260505023502 16 315 0.0 17.7 0.00 0.00 0.00 41 1011.4
20260505023011 16 326 1.6 17.7 0.00 0.00 0.00 37 1011.3
20260505022502 16 347 1.6 8.0 0.00 0.00 0.00 38 1011.3
20260505022002 17 5 1.6 17.7 0.00 0.00 0.00 37 1011.3
20260505021505 16 213 6.4 17.7 0.00 0.00 0.00 39 1011.3
20260505021003 17 304 4.8 14.5 0.00 0.00 0.00 37 1011.3
20260505020503 17 344 3.2 14.5 0.00 0.00 0.00 40 1011.4
20260505020012 17 179 0.0 11.3 0.00 0.00 0.00 38 1011.3
20260505015503 17 221 0.0 11.3 0.00 0.00 0.00 38 1011.3
20260505015003 17 238 3.2 9.7 0.00 0.00 0.00 40 1011.3
20260505014505 17 266 0.0 14.5 0.00 0.00 0.00 38 1011.4
20260505014002 17 129 3.2 14.5 0.00 0.00 0.00 39 1011.4
20260505013503 17 307 3.2 14.5 0.00 0.00 0.00 41 1011.4
20260505013010 17 286 1.6 12.9 0.00 0.00 0.00 38 1011.4
20260505012502 18 265 3.2 11.3 0.00 0.00 0.00 39 1011.6
20260505012004 18 238 3.2 9.7 0.00 0.00 0.00 38 1011.6
20260505011509 18 355 1.6 16.1 0.00 0.00 0.00 36 1011.6
20260505011003 18 328 4.8 16.1 0.00 0.00 0.00 36 1011.7
20260505010502 18 241 3.2 14.5 0.00 0.00 0.00 35 1011.7
20260505010014 18 275 4.8 14.5 0.00 0.00 0.00 36 1011.8
20260505005503 18 250 3.2 12.9 0.00 0.00 0.00 35 1011.7
20260505005004 18 279 3.2 19.3 0.00 0.00 0.00 35 1011.6
20260505004522 18 279 4.8 19.3 0.00 0.00 0.00 35 1011.6
20260505004003 18 269 3.2 17.7 0.00 0.00 0.00 33 1011.5
20260505003502 19 345 6.4 17.7 0.00 0.00 0.00 34 1011.6
20260505003017 19 252 1.6 19.3 0.00 0.00 0.00 33 1011.5
20260505002504 19 312 6.4 19.3 0.00 0.00 0.00 34 1011.6
20260505002004 19 273 4.8 17.7 0.00 0.00 0.00 31 1011.6
20260505001512 19 241 4.8 17.7 0.00 0.00 0.00 34 1011.6
20260505001003 19 313 3.2 14.5 0.00 0.00 0.00 29 1011.6
20260505000505 20 227 4.8 17.7 0.00 0.00 0.00 32 1011.6
20260505000032 20 248 4.8 17.7 0.00 0.00 0.00 30 1011.7
20260504235502 20 252 3.2 20.9 0.00 0.00 0.00 30 1011.7
20260504235003 20 221 3.2 20.9 0.00 0.00 0.00 31 1011.7
20260504234507 20 252 4.8 14.5 0.00 0.00 0.00 30 1011.8
20260504234004 20 70 3.2 17.7 0.00 0.00 0.00 30 1011.8
20260504233503 20 304 3.2 17.7 0.00 0.00 0.00 29 1011.7
20260504232505 20 265 8.0 22.5 0.00 0.00 0.00 29 1011.9
20260504232008 20 244 3.2 24.1 0.00 0.00 0.00 30 1011.9
20260504231524 20 331 8.0 24.1 0.00 0.00 0.00 30 1011.9
20260504225504 20 242 4.8 24.1 0.00 0.00 0.00 31 1012.0
20260504225004 20 59 6.4 24.1 0.00 0.00 0.00 31 1012.0
20260504224529 20 355 3.2 12.9 0.00 0.00 0.00 32 1012.0
20260504224004 21 336 3.2 12.9 0.00 0.00 0.00 32 1012.0
20260504223008 20 36 9.7 22.5 0.00 0.00 0.00 33 1012.1
20260504222504 20 302 3.2 20.9 0.00 0.00 0.00 32 1012.2
20260504222003 21 338 8.0 20.9 0.00 0.00 0.00 31 1012.2
20260504221004 21 336 6.4 14.5 0.00 0.00 0.00 33 1012.2
20260504220504 21 355 3.2 19.3 0.00 0.00 0.00 31 1012.1
20260504220026 21 245 6.4 19.3 0.00 0.00 0.00 31 1012.1
20260504215507 21 22 1.6 20.9 0.00 0.00 0.00 32 1012.2
20260504215011 21 5 8.0 20.9 0.00 0.00 0.00 31 1012.2
20260504213507 21 304 3.2 19.3 0.00 0.00 0.00 31 1012.2
20260504213032 22 345 6.4 19.3 0.00 0.00 0.00 32 1012.2
20260504212504 21 267 3.2 14.5 0.00 0.00 0.00 32 1012.3
20260504212009 21 294 4.8 14.5 0.00 0.00 0.00 30 1012.2
20260504211514 21 260 3.2 17.7 0.00 0.00 0.00 31 1012.4